| time (UTC) | temp F | wind direction | speed knots | gust knots | rain 1hr in | rain 24hr in | rain mn in | humidity % | barometer mb |
| 20260506164005 | 72 | 334 | 0.0 | 0.0 | 0.00 | 0.08 | 0.04 | 52 | 996.0 |
| 20260506163505 | 66 | 334 | 0.0 | 0.0 | 0.00 | 0.08 | 0.04 | 60 | 996.0 |
| 20260506163005 | 64 | 334 | 0.0 | 0.0 | 0.00 | 0.08 | 0.04 | 64 | 996.0 |
| 20260506162505 | 63 | 334 | 0.0 | 0.0 | 0.00 | 0.08 | 0.04 | 67 | 996.0 |
| 20260506162005 | 62 | 334 | 0.0 | 0.0 | 0.00 | 0.08 | 0.04 | 68 | 996.0 |
| 20260506161505 | 61 | 333 | 0.0 | 0.0 | 0.00 | 0.08 | 0.04 | 67 | 996.0 |
| 20260506161005 | 61 | 334 | 0.0 | 0.0 | 0.00 | 0.08 | 0.04 | 67 | 996.0 |
| 20260506160505 | 60 | 333 | 0.0 | 0.0 | 0.00 | 0.08 | 0.04 | 67 | 996.0 |
| 20260506160005 | 60 | 333 | 0.0 | 0.0 | 0.00 | 0.08 | 0.04 | 67 | 996.0 |
| 20260506155505 | 60 | 333 | 0.0 | 0.0 | 0.00 | 0.16 | 0.04 | 66 | 996.0 |
| 20260506155005 | 60 | 333 | 0.0 | 0.0 | 0.00 | 0.20 | 0.04 | 65 | 996.0 |
| 20260506154505 | 61 | 333 | 0.0 | 0.0 | 0.00 | 0.20 | 0.04 | 65 | 996.0 |
| 20260506154005 | 61 | 333 | 0.0 | 0.0 | 0.00 | 0.20 | 0.04 | 63 | 996.0 |
| 20260506153505 | 62 | 333 | 0.0 | 0.0 | 0.00 | 0.20 | 0.04 | 62 | 996.0 |
| 20260506153005 | 62 | 333 | 0.0 | 0.0 | 0.00 | 0.20 | 0.04 | 62 | 996.0 |
| 20260506152504 | 63 | 334 | 0.0 | 0.0 | 0.00 | 0.20 | 0.04 | 60 | 997.0 |
| 20260506152004 | 63 | 333 | 0.0 | 0.0 | 0.00 | 0.20 | 0.04 | 61 | 997.0 |
| 20260506151505 | 63 | 333 | 0.0 | 0.0 | 0.00 | 0.20 | 0.04 | 60 | 997.0 |
| 20260506151005 | 63 | 334 | 0.0 | 0.0 | 0.00 | 0.20 | 0.04 | 60 | 997.0 |
| 20260506150505 | 62 | 333 | 0.0 | 0.0 | 0.00 | 0.20 | 0.04 | 63 | 997.0 |
| 20260506150005 | 62 | 334 | 0.0 | 0.0 | 0.00 | 0.20 | 0.04 | 64 | 997.0 |
| 20260506145504 | 61 | 333 | 0.0 | 0.0 | 0.00 | 0.20 | 0.04 | 64 | 997.0 |
| 20260506145005 | 60 | 334 | 0.0 | 0.0 | 0.00 | 0.20 | 0.04 | 65 | 997.0 |
| 20260506144505 | 60 | 334 | 0.0 | 0.0 | 0.00 | 0.20 | 0.04 | 64 | 997.0 |
| 20260506144005 | 60 | 333 | 0.0 | 2.6 | 0.00 | 0.20 | 0.04 | 64 | 997.0 |
| 20260506143504 | 60 | 333 | 0.9 | 2.6 | 0.04 | 0.20 | 0.04 | 61 | 997.0 |
| 20260506143005 | 61 | 333 | 0.0 | 0.0 | 0.04 | 0.20 | 0.04 | 62 | 997.0 |
| 20260506142504 | 61 | 333 | 0.0 | 0.0 | 0.04 | 0.20 | 0.04 | 63 | 997.0 |
| 20260506142005 | 61 | 334 | 0.0 | 0.0 | 0.04 | 0.20 | 0.04 | 64 | 997.0 |
| 20260506141505 | 60 | 334 | 0.0 | 0.0 | 0.04 | 0.20 | 0.04 | 63 | 997.0 |
| 20260506141005 | 60 | 333 | 0.0 | 1.7 | 0.04 | 0.20 | 0.04 | 64 | 997.0 |
| 20260506140504 | 60 | 343 | 0.0 | 1.7 | 0.04 | 0.20 | 0.04 | 64 | 997.0 |
| 20260506140005 | 59 | 306 | 0.0 | 1.7 | 0.04 | 0.20 | 0.04 | 64 | 997.0 |
| 20260506135505 | 60 | 333 | 0.0 | 1.7 | 0.04 | 0.24 | 0.04 | 67 | 997.0 |
| 20260506135005 | 60 | 353 | 0.0 | 2.6 | 0.04 | 0.24 | 0.04 | 68 | 997.0 |
| 20260506134505 | 60 | 31 | 0.0 | 1.7 | 0.04 | 0.24 | 0.04 | 68 | 997.0 |
| 20260506134005 | 59 | 358 | 0.0 | 1.7 | 0.04 | 0.24 | 0.04 | 67 | 997.0 |
| 20260506133505 | 59 | 283 | 0.9 | 4.3 | 0.00 | 0.20 | 0.00 | 65 | 997.0 |
| 20260506133004 | 60 | 344 | 0.0 | 4.3 | 0.00 | 0.20 | 0.00 | 59 | 997.0 |
| 20260506132505 | 61 | 23 | 1.7 | 4.3 | 0.00 | 0.20 | 0.00 | 52 | 997.0 |
| 20260506132005 | 61 | 84 | 0.0 | 2.6 | 0.00 | 0.20 | 0.00 | 47 | 997.0 |
| 20260506131505 | 62 | 20 | 0.0 | 1.7 | 0.00 | 0.20 | 0.00 | 46 | 997.0 |
| 20260506131005 | 62 | 333 | 0.0 | 0.0 | 0.00 | 0.24 | 0.00 | 48 | 996.0 |
| 20260506130505 | 61 | 349 | 0.0 | 0.0 | 0.00 | 0.24 | 0.00 | 48 | 996.0 |
| 20260506130005 | 61 | 316 | 0.0 | 1.7 | 0.00 | 0.24 | 0.00 | 49 | 996.0 |
| 20260506125504 | 61 | 311 | 0.0 | 2.6 | 0.00 | 0.24 | 0.00 | 48 | 1044.0 |
| 20260506125005 | 60 | 50 | 0.0 | 2.6 | 0.00 | 0.24 | 0.00 | 48 | 1044.0 |
| 20260506124505 | 60 | 59 | 0.0 | 2.6 | 0.00 | 0.24 | 0.00 | 47 | 1044.0 |
| 20260506124005 | 61 | 0 | 0.0 | 5.2 | 0.00 | 0.24 | 0.00 | 46 | 996.0 |
| 20260506123505 | 61 | 305 | 0.0 | 4.3 | 0.00 | 0.24 | 0.00 | 45 | 996.0 |
| 20260506123005 | 62 | 40 | 0.0 | 4.3 | 0.00 | 0.24 | 0.00 | 45 | 996.0 |
| 20260506122505 | 62 | 359 | 1.7 | 2.6 | 0.00 | 0.24 | 0.00 | 45 | 996.0 |
| 20260506122004 | 62 | 329 | 0.0 | 2.6 | 0.00 | 0.24 | 0.00 | 44 | 996.0 |
| 20260506121505 | 63 | 356 | 0.0 | 2.6 | 0.00 | 0.24 | 0.00 | 42 | 996.0 |
| 20260506121005 | 64 | 12 | 0.9 | 2.6 | 0.00 | 0.24 | 0.00 | 40 | 997.0 |
| 20260506120504 | 64 | 43 | 0.0 | 2.6 | 0.00 | 0.24 | 0.00 | 40 | 997.0 |
| 20260506120005 | 64 | 27 | 1.7 | 2.6 | 0.00 | 0.24 | 0.00 | 41 | 997.0 |
| 20260506115505 | 64 | 90 | 0.0 | 1.7 | 0.00 | 0.24 | 0.00 | 44 | 997.0 |
| 20260506115005 | 63 | 323 | 0.0 | 2.6 | 0.00 | 0.24 | 0.00 | 45 | 997.0 |
| 20260506114505 | 62 | 342 | 0.0 | 2.6 | 0.00 | 0.24 | 0.00 | 47 | 997.0 |
| 20260506114005 | 61 | 97 | 0.0 | 2.6 | 0.00 | 0.24 | 0.00 | 49 | 997.0 |
| 20260506113505 | 61 | 87 | 0.0 | 2.6 | 0.00 | 0.28 | 0.00 | 49 | 997.0 |
| 20260506113005 | 61 | 65 | 0.0 | 2.6 | 0.00 | 0.28 | 0.00 | 49 | 997.0 |
| 20260506112504 | 61 | 319 | 0.0 | 1.7 | 0.00 | 0.28 | 0.00 | 47 | 997.0 |
| 20260506112005 | 61 | 68 | 0.0 | 1.7 | 0.00 | 0.28 | 0.00 | 47 | 997.0 |
| 20260506111505 | 61 | 107 | 0.9 | 5.2 | 0.00 | 0.28 | 0.00 | 45 | 997.0 |
| 20260506111005 | 61 | 66 | 0.0 | 2.6 | 0.00 | 0.28 | 0.00 | 44 | 997.0 |
| 20260506110505 | 61 | 51 | 0.0 | 0.0 | 0.00 | 0.31 | 0.00 | 44 | 997.0 |
| 20260506110004 | 61 | 22 | 0.0 | 2.6 | 0.00 | 0.31 | 0.00 | 43 | 997.0 |
| 20260506105505 | 62 | 307 | 0.9 | 5.2 | 0.00 | 0.31 | 0.00 | 41 | 997.0 |
| 20260506105005 | 63 | 50 | 0.9 | 6.1 | 0.00 | 0.31 | 0.00 | 39 | 997.0 |
| 20260506104505 | 64 | 93 | 1.7 | 2.6 | 0.00 | 0.31 | 0.00 | 37 | 997.0 |
| 20260506104005 | 64 | 117 | 1.7 | 2.6 | 0.00 | 0.31 | 0.00 | 39 | 997.0 |
| 20260506103504 | 63 | 88 | 0.0 | 2.6 | 0.00 | 0.31 | 0.00 | 41 | 997.0 |
| 20260506103005 | 62 | 351 | 0.0 | 2.6 | 0.00 | 0.31 | 0.00 | 42 | 997.0 |
| 20260506102504 | 62 | 299 | 0.0 | 2.6 | 0.00 | 0.31 | 0.00 | 43 | 997.0 |
| 20260506102005 | 62 | 348 | 0.0 | 2.6 | 0.00 | 0.31 | 0.00 | 44 | 997.0 |
| 20260506101505 | 61 | 7 | 0.9 | 5.2 | 0.00 | 0.31 | 0.00 | 44 | 997.0 |
| 20260506101005 | 62 | 315 | 0.9 | 5.2 | 0.00 | 0.31 | 0.00 | 44 | 997.0 |
| 20260506100504 | 62 | 64 | 0.0 | 1.7 | 0.00 | 0.31 | 0.00 | 46 | 997.0 |
| 20260506100005 | 61 | 319 | 0.0 | 0.0 | 0.00 | 0.31 | 0.00 | 49 | 997.0 |
| 20260506095505 | 61 | 319 | 0.0 | 0.0 | 0.00 | 0.31 | 0.00 | 50 | 997.0 |
| 20260506095005 | 60 | 320 | 0.0 | 2.6 | 0.00 | 0.31 | 0.00 | 51 | 997.0 |
| 20260506094505 | 60 | 317 | 0.0 | 2.6 | 0.00 | 0.31 | 0.00 | 50 | 997.0 |
| 20260506094005 | 60 | 320 | 0.0 | 0.0 | 0.00 | 0.31 | 0.00 | 49 | 997.0 |
| 20260506093504 | 60 | 25 | 0.0 | 0.0 | 0.00 | 0.31 | 0.00 | 51 | 997.0 |
| 20260506093005 | 60 | 305 | 0.0 | 0.0 | 0.00 | 0.31 | 0.00 | 51 | 997.0 |
| 20260506092505 | 60 | 306 | 0.0 | 0.0 | 0.00 | 0.31 | 0.00 | 50 | 997.0 |
| 20260506092005 | 60 | 307 | 0.0 | 0.0 | 0.00 | 0.31 | 0.00 | 49 | 997.0 |
| 20260506091505 | 61 | 306 | 0.0 | 0.0 | 0.00 | 0.31 | 0.00 | 49 | 997.0 |
| 20260506091005 | 61 | 306 | 0.0 | 0.0 | 0.00 | 0.31 | 0.00 | 48 | 997.0 |
| 20260506090504 | 61 | 307 | 0.0 | 0.0 | 0.00 | 0.31 | 0.00 | 47 | 997.0 |
| 20260506090004 | 61 | 306 | 0.0 | 0.0 | 0.00 | 0.31 | 0.00 | 47 | 997.0 |
| 20260506085505 | 62 | 306 | 0.0 | 0.0 | 0.00 | 0.31 | 0.00 | 47 | 997.0 |
| 20260506085005 | 62 | 306 | 0.0 | 0.0 | 0.00 | 0.31 | 0.00 | 50 | 997.0 |
| 20260506084505 | 62 | 306 | 0.0 | 0.0 | 0.00 | 0.31 | 0.00 | 52 | 997.0 |
| 20260506084005 | 61 | 306 | 0.0 | 0.0 | 0.00 | 0.31 | 0.00 | 58 | 997.0 |
| 20260506083505 | 61 | 306 | 0.0 | 0.0 | 0.00 | 0.31 | 0.00 | 62 | 997.0 |
| 20260506083005 | 61 | 306 | 0.0 | 0.0 | 0.00 | 0.31 | 0.00 | 64 | 997.0 |
| 20260506082505 | 59 | 306 | 0.0 | 0.0 | 0.00 | 0.31 | 0.00 | 65 | 997.0 |
| 20260506082005 | 58 | 306 | 0.0 | 0.0 | 0.00 | 0.31 | 0.00 | 67 | 997.0 |
| 20260506081505 | 58 | 306 | 0.0 | 0.0 | 0.00 | 0.31 | 0.00 | 69 | 997.0 |
| 20260506081005 | 57 | 306 | 0.0 | 0.0 | 0.00 | 0.31 | 0.00 | 71 | 997.0 |
| 20260506080505 | 57 | 306 | 0.0 | 0.0 | 0.00 | 0.31 | 0.00 | 72 | 997.0 |
| 20260506073505 | 56 | 306 | 0.0 | 0.0 | 0.00 | 0.31 | 0.00 | 76 | 998.0 |
| 20260506073005 | 56 | 306 | 0.0 | 0.0 | 0.00 | 0.31 | 0.00 | 79 | 997.0 |
| 20260506072505 | 56 | 306 | 0.0 | 0.0 | 0.00 | 0.31 | 0.00 | 80 | 997.0 |
| 20260506072005 | 54 | 306 | 0.0 | 0.0 | 0.00 | 0.31 | 0.00 | 81 | 997.0 |
| 20260506071504 | 53 | 306 | 0.0 | 0.0 | 0.00 | 0.31 | 0.00 | 81 | 997.0 |
| 20260506071004 | 53 | 306 | 0.0 | 0.0 | 0.00 | 0.31 | 0.00 | 82 | 997.0 |
| 20260506070505 | 53 | 306 | 0.0 | 0.0 | 0.00 | 0.31 | 0.00 | 82 | 997.0 |
| 20260506062505 | 51 | 306 | 0.0 | 0.0 | 0.00 | 0.31 | 0.00 | 85 | 997.0 |
| 20260506062005 | 51 | 306 | 0.0 | 0.0 | 0.00 | 0.31 | 0.00 | 85 | 997.0 |
| 20260506061505 | 51 | 306 | 0.0 | 0.0 | 0.00 | 0.31 | 0.00 | 85 | 997.0 |
| 20260506061005 | 51 | 306 | 0.0 | 0.0 | 0.00 | 0.31 | 0.00 | 85 | 997.0 |
| 20260506060504 | 51 | 306 | 0.0 | 0.0 | 0.00 | 0.31 | 0.00 | 85 | 997.0 |
| 20260506051005 | 51 | 306 | 0.0 | 0.0 | 0.00 | 0.31 | 0.00 | 85 | 997.0 |
| 20260506050504 | 51 | 306 | 0.0 | 0.0 | 0.00 | 0.31 | 0.00 | 85 | 997.0 |
| 20260506045005 | 51 | 306 | 0.0 | 0.0 | 0.00 | 0.31 | 0.00 | 85 | 997.0 |
| 20260506044505 | 51 | 306 | 0.0 | 0.0 | 0.00 | 0.31 | 0.00 | 85 | 997.0 |
| 20260506044004 | 51 | 306 | 0.0 | 0.0 | 0.00 | 0.31 | 0.00 | 85 | 997.0 |
| 20260506043505 | 51 | 306 | 0.0 | 0.0 | 0.00 | 0.31 | 0.00 | 85 | 997.0 |
| 20260506043005 | 51 | 306 | 0.0 | 0.0 | 0.00 | 0.31 | 0.00 | 85 | 997.0 |
| 20260506042505 | 51 | 306 | 0.0 | 0.0 | 0.00 | 0.31 | 0.00 | 85 | 997.0 |
| 20260506042005 | 51 | 306 | 0.0 | 0.0 | 0.00 | 0.31 | 0.00 | 85 | 997.0 |
| 20260506041505 | 51 | 306 | 0.0 | 0.0 | 0.00 | 0.31 | 0.00 | 85 | 997.0 |
| 20260506041004 | 51 | 306 | 0.0 | 0.0 | 0.00 | 0.31 | 0.00 | 85 | 1041.0 |
| 20260506040505 | 51 | 305 | 0.0 | 0.0 | 0.00 | 0.31 | 0.00 | 85 | 1041.0 |
| 20260506040005 | 51 | 306 | 0.0 | 0.0 | 0.00 | 0.31 | 0.00 | 84 | 1041.0 |
| 20260506035505 | 51 | 306 | 0.0 | 0.0 | 0.00 | 0.31 | 0.00 | 84 | 997.0 |
| 20260506035005 | 52 | 306 | 0.0 | 0.0 | 0.00 | 0.31 | 0.00 | 84 | 997.0 |
| 20260506034505 | 52 | 306 | 0.0 | 0.0 | 0.00 | 0.31 | 0.00 | 85 | 997.0 |
| 20260506034005 | 52 | 307 | 0.0 | 0.0 | 0.00 | 0.31 | 0.00 | 85 | 997.0 |
| 20260506033505 | 52 | 306 | 0.0 | 0.0 | 0.00 | 0.31 | 0.00 | 85 | 997.0 |
| 20260506033005 | 51 | 307 | 0.0 | 0.0 | 0.00 | 0.31 | 0.00 | 84 | 997.0 |
| 20260506032504 | 51 | 306 | 0.0 | 0.0 | 0.00 | 0.31 | 0.00 | 84 | 996.0 |
| 20260506032005 | 51 | 305 | 0.0 | 0.0 | 0.00 | 0.31 | 0.00 | 83 | 996.0 |
| 20260506031504 | 52 | 306 | 0.0 | 0.0 | 0.00 | 0.31 | 0.00 | 84 | 996.0 |
| 20260506031005 | 52 | 306 | 0.0 | 0.0 | 0.00 | 0.31 | 0.00 | 84 | 997.0 |
| 20260506030505 | 52 | 306 | 0.0 | 0.0 | 0.00 | 0.31 | 0.00 | 84 | 997.0 |
| 20260506030005 | 52 | 306 | 0.0 | 0.0 | 0.00 | 0.31 | 0.00 | 84 | 997.0 |
| 20260506025505 | 52 | 305 | 0.0 | 0.0 | 0.00 | 0.31 | 0.00 | 84 | 997.0 |
| 20260506025004 | 52 | 306 | 0.0 | 0.0 | 0.00 | 0.31 | 0.00 | 84 | 997.0 |
| 20260506024505 | 52 | 307 | 0.0 | 0.0 | 0.00 | 0.31 | 0.00 | 84 | 997.0 |
| 20260506024005 | 52 | 306 | 0.0 | 0.0 | 0.00 | 0.31 | 0.00 | 84 | 997.0 |
| 20260506023504 | 52 | 305 | 0.0 | 0.0 | 0.00 | 0.31 | 0.00 | 83 | 997.0 |
| 20260506023004 | 52 | 306 | 0.0 | 0.0 | 0.00 | 0.31 | 0.00 | 83 | 997.0 |
| 20260506022505 | 52 | 306 | 0.0 | 0.0 | 0.00 | 0.31 | 0.00 | 83 | 997.0 |
| 20260506022005 | 52 | 306 | 0.0 | 0.0 | 0.00 | 0.31 | 0.00 | 83 | 997.0 |
| 20260506021505 | 52 | 305 | 0.0 | 0.0 | 0.00 | 0.31 | 0.00 | 83 | 997.0 |
| 20260506021005 | 52 | 306 | 0.0 | 0.0 | 0.00 | 0.31 | 0.00 | 83 | 997.0 |
| 20260506020505 | 52 | 306 | 0.0 | 0.0 | 0.00 | 0.31 | 0.00 | 83 | 997.0 |
| 20260506020005 | 52 | 306 | 0.0 | 0.0 | 0.00 | 0.31 | 0.00 | 83 | 997.0 |
| 20260506015505 | 52 | 306 | 0.0 | 0.0 | 0.00 | 0.31 | 0.00 | 83 | 997.0 |
| 20260506015005 | 52 | 306 | 0.0 | 0.0 | 0.00 | 0.31 | 0.00 | 83 | 997.0 |
| 20260506014505 | 52 | 306 | 0.0 | 0.0 | 0.00 | 0.31 | 0.00 | 82 | 997.0 |
| 20260506014005 | 53 | 306 | 0.0 | 0.0 | 0.00 | 0.31 | 0.00 | 82 | 997.0 |
| 20260506013505 | 53 | 306 | 0.0 | 0.0 | 0.00 | 0.31 | 0.00 | 83 | 997.0 |
| 20260506013005 | 53 | 306 | 0.0 | 0.0 | 0.00 | 0.31 | 0.00 | 83 | 997.0 |
| 20260506012504 | 53 | 306 | 0.0 | 0.0 | 0.00 | 0.31 | 0.00 | 83 | 997.0 |
| 20260506012005 | 52 | 306 | 0.0 | 0.0 | 0.00 | 0.31 | 0.00 | 83 | 997.0 |
| 20260506011505 | 53 | 306 | 0.0 | 0.0 | 0.00 | 0.31 | 0.00 | 83 | 997.0 |
| 20260506011005 | 53 | 306 | 0.0 | 0.0 | 0.00 | 0.31 | 0.00 | 83 | 997.0 |
| 20260506010505 | 53 | 306 | 0.0 | 0.0 | 0.00 | 0.31 | 0.00 | 83 | 997.0 |
| 20260506010005 | 52 | 306 | 0.0 | 0.0 | 0.00 | 0.31 | 0.00 | 83 | 997.0 |
| 20260506005505 | 52 | 306 | 0.0 | 0.0 | 0.00 | 0.31 | 0.00 | 83 | 1042.0 |
| 20260506005005 | 53 | 306 | 0.0 | 0.0 | 0.00 | 0.31 | 0.00 | 84 | 1042.0 |
| 20260506004505 | 53 | 306 | 0.0 | 0.0 | 0.00 | 0.31 | 0.00 | 84 | 1042.0 |
| 20260506004005 | 53 | 307 | 0.0 | 0.0 | 0.00 | 0.31 | 0.00 | 84 | 998.0 |
| 20260506003505 | 53 | 307 | 0.0 | 0.0 | 0.00 | 0.31 | 0.00 | 84 | 998.0 |
| 20260506003005 | 53 | 306 | 0.0 | 0.0 | 0.00 | 0.31 | 0.00 | 84 | 998.0 |
| 20260506002505 | 53 | 306 | 0.0 | 0.0 | 0.00 | 0.31 | 0.00 | 85 | 998.0 |
| 20260506002005 | 53 | 306 | 0.0 | 0.0 | 0.00 | 0.31 | 0.00 | 85 | 998.0 |
| 20260506001505 | 53 | 306 | 0.0 | 0.0 | 0.00 | 0.31 | 0.00 | 85 | 998.0 |
| 20260506001004 | 53 | 306 | 0.0 | 0.0 | 0.00 | 0.31 | 0.00 | 85 | 998.0 |
| 20260506000504 | 53 | 306 | 0.0 | 0.0 | 0.00 | 0.31 | 0.00 | 85 | 998.0 |
| 20260506000005 | 52 | 306 | 0.0 | 0.0 | 0.00 | 0.31 | 0.00 | 85 | 998.0 |
| 20260505235505 | 52 | 306 | 0.0 | 0.0 | 0.00 | 0.31 | 0.00 | 84 | 997.0 |
| 20260505235005 | 52 | 306 | 0.0 | 0.0 | 0.00 | 0.31 | 0.00 | 84 | 997.0 |
| 20260505234504 | 52 | 306 | 0.0 | 0.0 | 0.00 | 0.31 | 0.00 | 84 | 997.0 |
| 20260505234005 | 53 | 306 | 0.0 | 0.0 | 0.00 | 0.31 | 0.00 | 84 | 998.0 |
| 20260505233504 | 53 | 306 | 0.0 | 0.0 | 0.00 | 0.31 | 0.00 | 84 | 998.0 |
| 20260505233004 | 53 | 306 | 0.0 | 0.0 | 0.00 | 0.31 | 0.00 | 85 | 998.0 |
| 20260505232505 | 53 | 306 | 0.0 | 0.0 | 0.00 | 0.31 | 0.00 | 85 | 997.0 |
| 20260505232005 | 53 | 306 | 0.0 | 0.0 | 0.00 | 0.31 | 0.00 | 85 | 997.0 |
| 20260505231505 | 53 | 306 | 0.0 | 0.0 | 0.00 | 0.35 | 0.00 | 85 | 997.0 |
| 20260505231005 | 52 | 306 | 0.0 | 0.0 | 0.00 | 0.35 | 0.00 | 85 | 998.0 |
| 20260505230505 | 52 | 306 | 0.0 | 0.0 | 0.00 | 0.35 | 0.00 | 85 | 998.0 |
| 20260505230004 | 52 | 306 | 0.0 | 0.0 | 0.00 | 0.35 | 0.00 | 85 | 998.0 |
| 20260505225504 | 52 | 306 | 0.0 | 0.0 | 0.00 | 0.35 | 0.00 | 85 | 998.0 |
| 20260505225004 | 52 | 306 | 0.0 | 0.0 | 0.00 | 0.35 | 0.00 | 85 | 998.0 |
| 20260505224504 | 52 | 306 | 0.0 | 0.0 | 0.00 | 0.35 | 0.00 | 85 | 998.0 |
| 20260505224005 | 52 | 307 | 0.0 | 0.0 | 0.00 | 0.35 | 0.00 | 85 | 1042.0 |
| 20260505223504 | 52 | 306 | 0.0 | 0.0 | 0.00 | 0.35 | 0.00 | 85 | 1042.0 |
| 20260505223004 | 52 | 306 | 0.0 | 0.0 | 0.00 | 0.35 | 0.00 | 85 | 1042.0 |
| 20260505222504 | 52 | 306 | 0.0 | 0.0 | 0.00 | 0.35 | 0.00 | 85 | 998.0 |
| 20260505222004 | 52 | 306 | 0.0 | 0.0 | 0.00 | 0.35 | 0.00 | 85 | 998.0 |
| 20260505221504 | 52 | 306 | 0.0 | 0.0 | 0.00 | 0.35 | 0.00 | 85 | 998.0 |
| 20260505221005 | 52 | 306 | 0.0 | 0.0 | 0.00 | 0.35 | 0.00 | 85 | 998.0 |
| 20260505220504 | 52 | 306 | 0.0 | 0.0 | 0.00 | 0.35 | 0.00 | 86 | 998.0 |
| 20260505220004 | 52 | 306 | 0.0 | 0.0 | 0.00 | 0.35 | 0.00 | 86 | 998.0 |
| 20260505215504 | 51 | 306 | 0.0 | 0.0 | 0.00 | 0.35 | 0.35 | 86 | 998.0 |
| 20260505215004 | 51 | 306 | 0.0 | 0.0 | 0.00 | 0.35 | 0.35 | 85 | 998.0 |
| 20260505214504 | 52 | 306 | 0.0 | 0.0 | 0.00 | 0.35 | 0.35 | 85 | 998.0 |
| 20260505214004 | 52 | 307 | 0.0 | 0.0 | 0.00 | 0.35 | 0.35 | 85 | 998.0 |
| 20260505213504 | 52 | 306 | 0.0 | 0.0 | 0.00 | 0.35 | 0.35 | 85 | 998.0 |
| 20260505213004 | 52 | 305 | 0.0 | 0.0 | 0.00 | 0.35 | 0.35 | 85 | 998.0 |
| 20260505212504 | 52 | 305 | 0.0 | 0.0 | 0.00 | 0.35 | 0.35 | 85 | 998.0 |
| 20260505212004 | 52 | 305 | 0.0 | 0.0 | 0.00 | 0.35 | 0.35 | 85 | 998.0 |
| 20260505211504 | 52 | 306 | 0.0 | 0.0 | 0.00 | 0.35 | 0.35 | 85 | 998.0 |
| 20260505211004 | 53 | 306 | 0.0 | 0.0 | 0.00 | 0.35 | 0.35 | 85 | 998.0 |
| 20260505210504 | 53 | 306 | 0.0 | 0.0 | 0.00 | 0.35 | 0.35 | 85 | 998.0 |
| 20260505210004 | 53 | 306 | 0.0 | 0.0 | 0.00 | 0.35 | 0.35 | 85 | 998.0 |
| 20260505205504 | 53 | 306 | 0.0 | 0.0 | 0.00 | 0.35 | 0.35 | 85 | 998.0 |
| 20260505205005 | 53 | 306 | 0.0 | 0.0 | 0.00 | 0.35 | 0.35 | 85 | 998.0 |
| 20260505204504 | 53 | 307 | 0.0 | 0.0 | 0.00 | 0.35 | 0.35 | 85 | 998.0 |
| 20260505204004 | 53 | 306 | 0.0 | 0.0 | 0.00 | 0.35 | 0.35 | 85 | 997.0 |
| 20260505203504 | 53 | 306 | 0.0 | 0.0 | 0.00 | 0.35 | 0.35 | 84 | 997.0 |
| 20260505203004 | 54 | 306 | 0.0 | 0.0 | 0.00 | 0.35 | 0.35 | 84 | 997.0 |
| 20260505202504 | 54 | 306 | 0.0 | 0.0 | 0.00 | 0.35 | 0.35 | 84 | 997.0 |
| 20260505202004 | 54 | 306 | 0.0 | 0.0 | 0.00 | 0.35 | 0.35 | 83 | 997.0 |
| 20260505201504 | 54 | 306 | 0.0 | 0.0 | 0.00 | 0.35 | 0.35 | 83 | 997.0 |
| 20260505201004 | 54 | 306 | 0.0 | 0.0 | 0.00 | 0.35 | 0.35 | 82 | 1043.0 |
| 20260505200505 | 54 | 306 | 0.0 | 0.0 | 0.00 | 0.35 | 0.35 | 82 | 1043.0 |
| 20260505200005 | 55 | 306 | 0.0 | 0.0 | 0.00 | 0.35 | 0.35 | 81 | 1043.0 |
| 20260505195504 | 55 | 306 | 0.0 | 0.0 | 0.00 | 0.35 | 0.35 | 80 | 997.0 |
| 20260505195005 | 55 | 306 | 0.0 | 0.0 | 0.00 | 0.35 | 0.35 | 80 | 997.0 |
| 20260505194504 | 55 | 306 | 0.0 | 0.0 | 0.00 | 0.35 | 0.35 | 79 | 997.0 |
| 20260505194004 | 55 | 306 | 0.0 | 0.0 | 0.00 | 0.35 | 0.35 | 78 | 997.0 |
| 20260505193504 | 55 | 307 | 0.0 | 0.0 | 0.00 | 0.35 | 0.35 | 78 | 997.0 |
| 20260505193004 | 56 | 306 | 0.0 | 0.0 | 0.00 | 0.35 | 0.35 | 77 | 997.0 |
| 20260505192505 | 56 | 306 | 0.0 | 0.0 | 0.00 | 0.35 | 0.35 | 78 | 997.0 |
| 20260505192005 | 56 | 306 | 0.0 | 0.0 | 0.00 | 0.35 | 0.35 | 78 | 997.0 |
| 20260505191504 | 56 | 306 | 0.0 | 0.0 | 0.00 | 0.35 | 0.35 | 77 | 997.0 |
| 20260505191004 | 56 | 306 | 0.0 | 0.0 | 0.00 | 0.35 | 0.35 | 77 | 997.0 |
| 20260505190505 | 56 | 306 | 0.0 | 0.0 | 0.00 | 0.35 | 0.35 | 76 | 997.0 |
| 20260505190005 | 56 | 307 | 0.0 | 0.0 | 0.00 | 0.35 | 0.35 | 76 | 997.0 |
| 20260505185505 | 56 | 306 | 0.0 | 0.0 | 0.00 | 0.35 | 0.35 | 76 | 997.0 |
| 20260505185005 | 56 | 306 | 0.0 | 0.0 | 0.00 | 0.35 | 0.35 | 76 | 997.0 |
| 20260505184505 | 56 | 306 | 0.0 | 0.0 | 0.00 | 0.35 | 0.35 | 75 | 997.0 |
| 20260505184004 | 56 | 305 | 0.0 | 0.0 | 0.00 | 0.35 | 0.35 | 75 | 997.0 |
| 20260505183504 | 56 | 306 | 0.0 | 0.0 | 0.00 | 0.35 | 0.35 | 74 | 997.0 |
| 20260505183005 | 56 | 306 | 0.0 | 0.0 | 0.00 | 0.35 | 0.35 | 72 | 997.0 |
| 20260505182505 | 56 | 306 | 0.0 | 0.0 | 0.00 | 0.35 | 0.35 | 70 | 997.0 |
| 20260505181504 | 57 | 306 | 0.0 | 0.0 | 0.04 | 0.35 | 0.35 | 68 | 997.0 |
| 20260505181005 | 57 | 306 | 0.0 | 0.0 | 0.04 | 0.35 | 0.35 | 68 | 997.0 |
| 20260505180504 | 57 | 306 | 0.0 | 0.0 | 0.04 | 0.35 | 0.35 | 68 | 997.0 |
| 20260505180004 | 57 | 305 | 0.0 | 0.0 | 0.04 | 0.35 | 0.35 | 68 | 997.0 |
| 20260505175504 | 57 | 306 | 0.0 | 0.0 | 0.04 | 0.35 | 0.35 | 67 | 997.0 |
| 20260505175004 | 57 | 306 | 0.0 | 0.0 | 0.04 | 0.35 | 0.35 | 67 | 997.0 |
| 20260505174504 | 57 | 306 | 0.0 | 0.0 | 0.04 | 0.35 | 0.35 | 67 | 997.0 |
| 20260505174004 | 57 | 319 | 0.0 | 0.0 | 0.04 | 0.35 | 0.35 | 67 | 997.0 |
| 20260505173504 | 57 | 306 | 0.0 | 0.0 | 0.04 | 0.35 | 0.35 | 68 | 997.0 |
| 20260505173004 | 56 | 312 | 0.0 | 0.0 | 0.04 | 0.35 | 0.35 | 68 | 997.0 |
| 20260505172504 | 55 | 312 | 0.0 | 5.2 | 0.04 | 0.35 | 0.35 | 67 | 997.0 |
| 20260505172004 | 56 | 323 | 0.0 | 2.6 | 0.04 | 0.35 | 0.35 | 65 | 997.0 |
| 20260505171504 | 56 | 312 | 0.0 | 2.6 | 0.00 | 0.31 | 0.31 | 66 | 997.0 |
| 20260505171004 | 56 | 319 | 0.0 | 2.6 | 0.00 | 0.31 | 0.31 | 65 | 997.0 |
| 20260505170504 | 56 | 306 | 0.9 | 4.3 | 0.00 | 0.31 | 0.31 | 64 | 997.0 |
| 20260505170004 | 56 | 319 | 0.9 | 2.6 | 0.00 | 0.31 | 0.31 | 65 | 997.0 |
| 20260505165504 | 56 | 43 | 0.0 | 2.6 | 0.00 | 0.31 | 0.31 | 67 | 997.0 |
| 20260505165004 | 57 | 322 | 1.7 | 5.2 | 0.12 | 0.31 | 0.31 | 65 | 997.0 |
| 20260505164505 | 58 | 332 | 0.9 | 2.6 | 0.12 | 0.31 | 0.31 | 68 | 997.0 |